This is the latest recevied weather packets stored in our database for station/object K0SNA. If no packets are shown the sender has not sent any weather packets the latest 1 day(s).
| Time | Temp. | Humidity | Pressure | Rain* | Wind** | Luminosity | Snow |
|---|---|---|---|---|---|---|---|
| 1778021877 | 10° C | 40% | 1010.8 hPa | 0 mm | 0.89 m/s, 216° | 91 W/m² | - |
| 1778021575 | 10.56° C | 38% | 1011.1 hPa | 0 mm | 1.34 m/s, 254° | 113 W/m² | - |
| 1778021269 | 10° C | 40% | 1011 hPa | 0 mm | 0.89 m/s, 239° | 106 W/m² | - |
| 1778020968 | 9.44° C | 41% | 1010.8 hPa | 0 mm | 1.34 m/s, 243° | 148 W/m² | - |
| 1778020665 | 9.44° C | 41% | 1011.1 hPa | 0 mm | 1.34 m/s, 342° | 121 W/m² | - |
| 1778020361 | 9.44° C | 40% | 1011 hPa | 0 mm | 1.34 m/s, 249° | 150 W/m² | - |
| 1778020057 | 10° C | 39% | 1011.1 hPa | 0 mm | 1.34 m/s, 335° | 157 W/m² | - |
| 1778019753 | 9.44° C | 41% | 1010.7 hPa | 0 mm | 1.34 m/s, 265° | 224 W/m² | - |
| 1778019451 | 9.44° C | 41% | 1011 hPa | 0 mm | 1.79 m/s, 339° | 123 W/m² | - |
| 1778019147 | 9.44° C | 40% | 1011 hPa | 0 mm | 2.24 m/s, 257° | 168 W/m² | - |
| 1778018844 | 10° C | 41% | 1010.9 hPa | 0 mm | 1.34 m/s, 230° | 171 W/m² | - |
| 1778018542 | 9.44° C | 40% | 1011 hPa | 0 mm | 2.68 m/s, 333° | 196 W/m² | - |
| 1778018240 | 9.44° C | 40% | 1011 hPa | 0 mm | 0.45 m/s, 238° | 144 W/m² | - |
| 1778017937 | 9.44° C | 39% | 1011.1 hPa | 0 mm | 1.34 m/s, 251° | 153 W/m² | - |
| 1778017635 | 9.44° C | 39% | 1011.1 hPa | 0 mm | 3.13 m/s, 325° | 151 W/m² | - |
| 1778017332 | 9.44° C | 39% | 1011.2 hPa | 0 mm | 1.79 m/s, 262° | 125 W/m² | - |
| 1778017029 | 9.44° C | 40% | 1011 hPa | 0 mm | 2.68 m/s, 341° | 177 W/m² | - |
| 1778016726 | 10° C | 39% | 1011.1 hPa | 0 mm | 3.58 m/s, 304° | 153 W/m² | - |
| 1778016422 | 9.44° C | 40% | 1011.3 hPa | 0 mm | 1.79 m/s, 317° | 175 W/m² | - |
| 1778016120 | 10° C | 40% | 1011 hPa | 0 mm | 2.68 m/s, 329° | 208 W/m² | - |
| 1778015816 | 10° C | 41% | 1011.2 hPa | 0 mm | 1.79 m/s, 352° | 119 W/m² | - |
| 1778015514 | 10° C | 40% | 1011 hPa | 0 mm | 3.13 m/s, 296° | 122 W/m² | - |
| 1778015211 | 10° C | 40% | 1011.2 hPa | 0 mm | 1.34 m/s, 276° | 172 W/m² | - |
| 1778014907 | 10° C | 39% | 1011.1 hPa | 0 mm | 3.58 m/s, 343° | 245 W/m² | - |
| 1778014605 | 10° C | 40% | 1011.3 hPa | 0 mm | 1.34 m/s, 222° | 270 W/m² | - |
* Rain latest hour (hover to see other rain measurements)
** Current wind speed in m/s (hover to see current wind gust speed)